Regional Weather Roundup
Issued by NWS

Home | Current Version | Previous Version | Text Only | Print | Product List | Glossary Off
Versions: 1 2 3 4 5 6 7 8 9 10 11 12 13 14 15 16 17 18 19 20 21 22 23 24 25 26 27 28 29 30 31 32 33 34 35 36 37 38 39 40 41 42 43 44 45 46 47 48 49 50

000
ASUS45 KSLC 201410
RWRUT

UTAH REGIONAL WEATHER ROUNDUP
NATIONAL WEATHER SERVICE SALT LAKE CITY UT
700 AM MST SAT DEC 20 2014

UTZ001>011-023>025-201500-

NORTHERN UTAH

CITY           SKY/WX    TMP DP  RH WIND       PRES   REMARKS
BRIGHAM CITY   CLOUDY    38  34  86 CALM      30.12S
HILL AFB       MIX PCPN  36  36 100 S8        30.11R WCI  29
LOGAN          CLOUDY    34  33  96 N3        30.09F FOG
OGDEN          LGT RAIN  36  35  96 S8        30.10S FOG     WCI  30
PROVO AIRPORT  MOCLDY    34  30  86 CALM      30.13R
SALT LAKE CITY MOCLDY    39  33  79 SE8       30.10S WCI  33
VERNAL         MOCLDY    22  20  92 CALM      30.16F
WENDOVER       MOCLDY    28  25  86 E5        30.10S WCI  23
HEBER CITY     CLOUDY    32  30  93 CALM      30.10S
WEST JORDAN    CLOUDY    37  36  93 S9        30.11R WCI  31

$$

UTZ012>022-026-027-201500-

SOUTHERN/CENTRAL UTAH

CITY           SKY/WX    TMP DP  RH WIND       PRES   REMARKS
BLANDING       CLOUDY    25  24  95 CALM      30.25R
BRYCE CANYON   CLEAR     13  10  88 NW5       30.13F WCI   5
CEDAR CITY     CLEAR     24  20  84 CALM      30.12F
DELTA          CLEAR     30  28  92 SW6       30.12S WCI  24
MILFORD        PTCLDY    30  24  78 SW13      30.11S WCI  20
MOAB/CYNLANDS  CLOUDY    31  29  92 CALM      30.17S FOG
PRICE          CLOUDY    27  22  81 CALM      30.15S
ST GEORGE      MOSUNNY   36  28  75 CALM      30.19S
KANAB          CLEAR     28  28 100 CALM      30.21F

$$

REGIONAL REPORTS     COLORADO/ARIZONA

CITY           SKY/WX    TMP DP  RH WIND       PRES   REMARKS
CRAIG, CO      CLOUDY    20  17  88 W3        30.15R
GRAND JUNCTION CLOUDY    28  24  85 SE8       30.19R WCI  20
RIFLE          CLOUDY    26  21  81 CALM      30.20R
MONTROSE       CLOUDY    25  19  78 SE6       30.21R WCI  18
CORTEZ         PTCLDY    22  19  89 E5        30.19R WCI  16
PAGE, AZ       PTCLDY    34  28  79 S5        30.19S WCI  30
GRAND CANYON   CLEAR     19  16  88 CALM      30.18R
KINGMAN        CLEAR     30  27  88 S3        30.16R
FLAGSTAFF      CLEAR     19  15  84 CALM      30.17R

$$

REGIONAL REPORTS    NEVADA/IDAHO/WYOMING

CITY           SKY/WX    TMP DP  RH WIND       PRES   REMARKS
LAS VEGAS, NV  PTCLDY    42  35  76 S12       30.12F
ELY            CLOUDY    24  21  88 S10       30.11S WCI  14
ELKO           FLURRIES  32  31  96 S3        30.08R
POCATELLO, ID  CLOUDY    37  32  82 S8        30.06S WCI  31
BURLEY         CLOUDY    38  31  76 S14       30.04F WCI  30
EVANSTON, WY   CLOUDY    29  26  89 SW9       30.06S WCI  20
ROCK SPRINGS   CLOUDY    28  22  78 SW15      30.05F WCI  16
KEMMERER       CLOUDY    28  27  93 SW6       30.05S WCI  22

$$


USA.gov is the U.S. government's official web portal to all federal, state and local government web resources and services.